Photometre #645[NE_1.6] Timisoara AOT

File : 20190923_645.hum

23/09/2019,05:12:55,TEMP=25.4,BA=5.20,STAT.h
23/09/2019,05:16:36,TEMP=25.4,BA=5.20,STAT.h
23/09/2019,05:20:56,TEMP=25.4,BA=5.24,STAT.h
23/09/2019,05:26:04,TEMP=25.4,BA=5.24,STAT.h
23/09/2019,05:32:15,TEMP=25.4,BA=5.24,STAT.h
23/09/2019,05:39:55,TEMP=25.4,BA=5.24,STAT.h
23/09/2019,05:49:35,TEMP=25.4,BA=5.20,STAT.h
23/09/2019,05:54:13,TEMP=25.4,BA=5.24,STAT.h
23/09/2019,05:59:24,TEMP=25.4,BA=5.24,STAT.h
23/09/2019,06:05:16,TEMP=25.4,BA=5.28,STAT.h
23/09/2019,06:12:19,TEMP=13.9,BA=5.32,STAT.A=2.0,ExtBa=12.95
23/09/2019,06:20:01,TEMP=14.1,BA=5.32,STAT.C=2.0,ExtBa=12.89
23/09/2019,06:28:59,TEMP=14.3,BA=5.20,STAT.A=2.0,ExtBa=12.88
23/09/2019,06:39:36,TEMP=14.5,BA=5.20,STAT.A=2.0,ExtBa=12.88
23/09/2019,06:52:25,TEMP=14.6,BA=5.36,STAT.A=2.0,ExtBa=12.88
23/09/2019,07:07:53,TEMP=14.9,BA=5.40,STAT.h
23/09/2019,07:27:13,TEMP=14.2,BA=5.56,STAT.F,ExtBa=12.91
23/09/2019,07:42:12,TEMP=15.1,BA=5.60,STAT.D=2.0,ExtBa=13.04
23/09/2019,07:57:12,TEMP=15.9,BA=5.64,STAT.D=2.0,ExtBa=13.16
23/09/2019,08:12:11,TEMP=16.5,BA=5.64,STAT.D=2.0,ExtBa=13.12
23/09/2019,08:27:13,TEMP=17.1,BA=5.64,STAT.F,ExtBa=13.19
23/09/2019,08:42:11,TEMP=17.5,BA=5.60,STAT.D=2.0,ExtBa=13.09
23/09/2019,08:57:11,TEMP=17.5,BA=5.52,STAT.D=3.0,ExtBa=13.00
23/09/2019,09:12:11,TEMP=17.6,BA=5.56,STAT.D=3.0,ExtBa=12.95
23/09/2019,09:27:13,TEMP=17.8,BA=5.56,STAT.F,ExtBa=12.92
23/09/2019,09:42:11,TEMP=18.1,BA=5.60,STAT.D=3.0,ExtBa=12.99
23/09/2019,09:57:11,TEMP=18.7,BA=5.60,STAT.D=3.0,ExtBa=13.30
23/09/2019,10:12:11,TEMP=19.8,BA=5.64,STAT.D=3.0,ExtBa=13.80
23/09/2019,10:27:13,TEMP=21.7,BA=5.64,STAT.F,ExtBa=14.05
23/09/2019,10:42:12,TEMP=22.0,BA=5.56,STAT.D=3.0,ExtBa=13.55
23/09/2019,10:57:12,TEMP=22.2,BA=5.56,STAT.D=3.0,ExtBa=13.62
23/09/2019,11:12:12,TEMP=22.0,BA=5.56,STAT.D=3.0,ExtBa=13.57
23/09/2019,11:27:14,TEMP=22.1,BA=5.52,STAT.F,ExtBa=13.63
23/09/2019,11:42:12,TEMP=22.7,BA=5.56,STAT.D=3.0,ExtBa=13.79
23/09/2019,11:57:12,TEMP=22.9,BA=5.52,STAT.D=3.0,ExtBa=13.67
23/09/2019,12:12:12,TEMP=22.6,BA=5.52,STAT.D=3.0,ExtBa=13.58
23/09/2019,12:27:13,TEMP=22.5,BA=5.52,STAT.F,ExtBa=13.50
23/09/2019,12:42:12,TEMP=22.6,BA=5.52,STAT.D=3.0,ExtBa=13.58
23/09/2019,12:57:12,TEMP=22.7,BA=5.52,STAT.D=3.0,ExtBa=13.69
23/09/2019,13:12:11,TEMP=22.9,BA=5.52,STAT.D=3.0,ExtBa=13.74
23/09/2019,13:27:13,TEMP=22.8,BA=5.52,STAT.F,ExtBa=13.66
23/09/2019,13:46:11,TEMP=22.4,BA=5.52,STAT.A=3.0,ExtBa=13.44
23/09/2019,14:02:02,TEMP=22.1,BA=5.48,STAT.A=3.0,ExtBa=13.30
23/09/2019,14:14:50,TEMP=21.9,BA=5.44,STAT.A=3.0,ExtBa=13.22
23/09/2019,14:25:27,TEMP=21.9,BA=5.44,STAT.A=3.0,ExtBa=13.16
23/09/2019,14:34:25,TEMP=22.0,BA=5.48,STAT.C=3.0,ExtBa=13.13
23/09/2019,14:42:06,TEMP=22.0,BA=5.44,STAT.A=3.0,ExtBa=13.10
23/09/2019,14:48:47,TEMP=21.9,BA=5.44,STAT.A=3.0,ExtBa=13.09
23/09/2019,14:54:40,TEMP=21.9,BA=5.36,STAT.A=3.0,ExtBa=13.08
23/09/2019,14:59:50,TEMP=21.9,BA=5.36,STAT.A=3.0,ExtBa=13.06
23/09/2019,15:04:29,TEMP=21.8,BA=5.36,STAT.B=3.0,ExtBa=13.06
23/09/2019,15:14:09,TEMP=21.6,BA=5.40,STAT.A=3.0,ExtBa=13.09
23/09/2019,15:21:48,TEMP=21.5,BA=5.40,STAT.A=3.0,ExtBa=13.08
23/09/2019,15:27:59,TEMP=21.4,BA=5.40,STAT.A=3.0,ExtBa=13.06
23/09/2019,15:34:08,TEMP=21.2,BA=5.40,STAT.A=3.0,ExtBa=13.06
23/09/2019,15:37:27,TEMP=21.3,BA=5.40,STAT.A=3.0,ExtBa=13.03
23/09/2019,15:41:08,TEMP=21.2,BA=5.36,STAT.A=3.0,ExtBa=13.02